Néerlandais Anglais 
 
    ?

S'identifier
  
www.cartophilie.be est sponsorisé par

Bienvenue sur Cartophilie.be

Cartes postales

(128) Belgique Fantaisie Illustrées Par pays Précurseurs Photos cartes

  
Chercher Cartes Postales (75020)
ID Carte Série Référence-numéro sur carte Set de la carte Clé de tri Format Mode d'impression Cachet le plus ancien Année édition Editeur Imprimeur Photographe Illustrateur Localité Langue du titre Code Postal TitreCommentaire généralCommentaire thèmeVariante de libellé éditeur Pseudo de l'utilisateur Date de la fiche
5416 1910-00-001910Fr8300Moulin de Siska à Knocke2005-07-13
5453 1910-00-001910Editeur local (son nom sera mis en commentaire dans la carte)Fr6210Villers-Perwin - Warchais - rue de la gareEdit. Robert Defeau2005-11-05
5491 1910-00-001910Fr6724Rulles. Place de l'Eglise2005-07-30
5528 1910-00-001910Fr4852Merckhof. Halte de chemin de ferhélas petit scan...2005-07-31
5835 1910-00-001910Fr5680Petit-Doische. Maison BlancheA Dambly-Caussin Café2005-08-17
5856 1910-00-0019103472Miscom. De Watermolen2005-08-28
6483 1910-00-001910Fr4000Liège.Le Marchand de Chapeaux2005-10-28
6592 1910-00-001910Fr7000Mons. - Marché aux poissonstrès beau thème et très beau plan de Marché2005-11-09
25654 1910-00-001910Fr7080Frameries. Grand-Rue2010-03-26
8375 1899-10-241899Fr6630Martelange. Hôtel de la maison rouge (1899)2006-01-06
8402 1910-00-001910Editeur local (son nom sera mis en commentaire dans la carte)Fr1460Ronquières-Fauquez. La GareEd. Floris Dechief, Ronquières2006-01-08
8768 1905-00-001905FrMon dieu qu'il est doux d'annoncer Votre bonté et Votre grâce2006-01-29
9448 1905-00-001905FrOtéro en dame de pique2006-05-06
9450 1905-00-001905FrCléo de Mérode en dame de coeur2006-05-06
9969 1910-00-001910Fr6180Courcelles. La gare et la poste de Courcelles Motte2007-01-01
10013 1910-00-001910Fr6700Sampont. Rue de l'Ecole2006-10-06
10085 1910-00-001910Fr3220Holsbeck. Windmolentitre en rouge2007-01-01
10572 1910-00-001910Fr7030Saint-Symphorien. Quatre-Pavés2006-11-24
10725 1910-00-001910Fr7062Monument aux morts de la guerre 40-45 Naast 1955Noté Gevaert au dosGevaert2006-12-29
11735 1905-00-001905Editeur local (son nom sera mis en commentaire dans la carte)FrExécution d'une oeuvre musicale (Holzer)M. D. Paris Série 9052007-01-22
12417 1910-00-001910Fr6721Anlier. Rue de la Fontaine2007-02-07
12647 1910-00-001910Fr4180Hamoir. La dernière malle-poste2007-02-20
12660 1910-00-001910Fr5190Mornimont. Grand Rue2007-02-21
12718 1910-00-001910Fr7321Harchies. Rue de l'Eglise2007-02-24
12890 1910-00-001910Fr6700Udange. Rue Basse2007-01-01
13014 1910-00-001910Fr4860Chalsèche. Route de Tancrémont2007-03-24
13015 1905-00-001905Fr6769Gevrouille (gérouville?). Ecole2007-03-24
13118 1905-00-001905Fr5660Brûly de Couvin(Belgique). Village de Gué d'Hossus2007-04-06
13220 1905-00-001905Editeur local (son nom sera mis en commentaire dans la carte)Fr4557Seny. Maison CommunaleA.Dawance2007-05-10
13228 1905-00-001905Fr4850Salut de Bleyberg. Ruine de Schimper, usine Escombrera, hôtel de la GareEugène Dienz Aix-la-Chapelle 282/3272007-05-12
13385 1905-00-001905Fr1460Virginal. La Gare2007-06-13
13440 1935-00-001935Fr1000Foire Commerciale de Bruxelles 1935. Fernand Toussaint2007-07-10
14187 1905-00-001905Editeur local (son nom sera mis en commentaire dans la carte)Fr6730Bellefontaine. L'entrée du villageEdition Sanssu. - Philippe Tonglet2007-08-07
14201 1905-00-001905Editeur local (son nom sera mis en commentaire dans la carte)Fr6230Thiméon. Place du centreEdit. Léon Ruslain2007-08-12
14203 1910-00-001910AVT ParisFrLe Canotage2007-08-15
14204 1910-00-001910L.D ParisFrCarte Système. Le Tangocarte érotique à système (utiliser un fltre rouge)2007-08-15
14247 1910-00-001910Fr1000Pavillon de la maison Meire. 94, Rue Kleber. Montreuil sous bois. Exposition uni2007-09-03
14248 1894-00-001894Fr2000Oud Antwerpen.Chapelle,Hospice,Théatre Souvenir de l'Exposition d'Anvers 18942007-09-03
14249 1904-00-001904Fr6700Exposition agricole Arlon 19042007-09-03
14250 1909-00-001909Fr9000Exposition internationale de floriculture pomologie et culture maraîchaire. Gand2007-09-03
14251 1911-00-001911Fr20007eme Congrès d'esperanto. Anvers 19112007-09-03
14252 1912-00-001912Fr1000XIme Salon de L'Automobile (Expo internationale). Bruxelles 19122007-09-03
14253 1914-00-001914Fr10006eme Exposition internationale de machines agricoles. Bruxelles 19142007-09-03
14254 1914-00-001914Fr2000La Femme Contemporaine/De Vrouw van Heden Anvers 19142007-09-03
14256 1908-00-001908Fr1000Exposition des Arts et Métiers Bruxelles 19082007-09-03
14258 1900-00-001900Fr4130Régates du 26 Aout 1900 Hony-Esneux2007-09-03
14260 1907-00-001907Fr2000Exposition internationale de chasse et de pêche 1907 à Anvers2007-09-03
14262 1904-00-001904Fr8400Ostende 1904. Exposition internationale des Arts de la mode féminine2007-09-03
14263 1896-00-001896Fr7000Mons 18962007-09-03
14265 1911-00-001911Fr1000Etablissements Madoux-Brassine. Auderghem. Exposition des Sociétés Royales Linné2007-09-03

Page: 1/1501 1 2 3 4 5 6 7   
Page: /1501
www.cartophilie.be est sponsorisé par
Merci à Francisco B.urzi qui m'a inspiré pour la création technique de ce site. Le code a été réécrit à 90%.
Grand merci à Claude De Saeger pour son support technique également
Page Generation: 1.37 secondes